Nanning Wuxu Airport
ZGNN : now visible

Airfield :











YOU CAN JOIN US ON...

 
LOGIN :

Register | Disclaimer

   EN    FR    IT 

 









Legend :    VFR   Marginal VFR   IFR   Intensive IFR   Very Intensive IFR
Visi :
Ceiling :
>= 8 km
>= 3000ft
5 to 8 km
1000 to 3000 ft
1500m to 5 km
500 to 1000 ft
800 to 1500m
200 to 500 ft
< 800m
< 200 ft
Symbols :   Thunderstorms  Fog  Heavy snow  Heavy precipitations  Wind > 20 kt






- Airport Elevation : 421 ft
- IATA code : NNG


ZGNN - Nanning Wuxu

CURRENT METAR :
  • 270100Z 36004MPS 9999 SCT013 OVC040 22/20 Q1013 NOSIG

EXPIRED METARs :
  • 270000Z 34003MPS 320V030 9999 SCT013 OVC033 22/20 Q1012 NOSIG
  • 262300Z 33003MPS 9999 SCT013 BKN033 21/20 Q1011 NOSIG

TAF TAF ZGNN
Valid from the 27 at 00:00 until the 28 at 00:00 UTC


262107Z 2700/2724 03003MPS 6000 SCT008 BKN033 TX29/2707Z TN22/2722Z
BECMG 2702/2703 BKN013 BKN033
ZGZU FIR / Asia



MET'MAP, your aeronautical weather chart ! - Copyright ORBIFLY December 2007 - Disclaimer

ORBIFLY MET'MAP TEAM :

Programming & Development : Alexandra Zaïnal
Concept & original design : Baudouin d'Aumeries
Assistance for programming : Marc-Olivier Méhu
Technical & hardware support : Manuel Goepfert

Contact : metmap@orbifly.com




SOURCES & CREDITS :

   NOAA       Earth
Advisory